Weather History for Ankeny, IA

Change the Weather History Date:

Thursday, April 10, 2014

  Actual Average (KDSM) Record (KDSM)
Temperature  
Mean Temperature 54 °F 50 °F  
Max Temperature 66 °F 60 °F 92 °F (1930)
Min Temperature 42 °F 39 °F 20 °F (1989)
Degree Days  
Heating Degree Days 11 16  
Month to date heating degree days 174  
Since 1 July heating degree days 5801  
Cooling Degree Days 0 0  
Month to date cooling degree days 0  
Year to date cooling degree days 1  
Growing Degree Days 4 (Base 50)    
Moisture  
Dew Point 29 °F    
Average Humidity 37    
Maximum Humidity 62    
Minimum Humidity 17    
Precipitation  
Precipitation 0.00 in 0.12 in 1.69 in (1887)
Month to date precipitation 1.04  
Year to date precipitation 5.62  
Snow  
Snow 0.00 in 0.10 in 3.10 in (1997)
Month to date snowfall 0.9  
Since 1 July snowfall 34.4  
Snow Depth -    
Sea Level Pressure  
Sea Level Pressure 29.83 in    
Wind  
Wind Speed 13 mph (NNW)    
Max Wind Speed 21 mph    
Max Gust Speed 34 mph    
Visibility 10 miles    
Events      
T = Trace of Precipitation, MM = Missing Value Source: NWS Daily Summary

Daily Weather History Graph

Daily Weather History Graph

Search for Another Location

Airport:

Trip Planner

Search our weather history database for the weather conditions in past years. The results will help you decide how hot, cold, wet, or windy it might be!

Date:

Astronomy

Apr. 10, 2014 Rise Set
Actual Time 6:42 AM CDT 7:49 PM CDT
Civil Twilight 6:13 AM CDT 8:18 PM CDT
Nautical Twilight 5:39 AM CDT 8:52 PM CDT
Astronomical Twilight 5:04 AM CDT 9:28 PM CDT
Moon 3:30 PM CDT (4/10) 4:09 AM CDT (4/10)
Length of Visible Light 14h 04m
Length of Day
13h 07m
Waxing Gibbous, 80% of the Moon is Illuminated
Apr 10
Waxing Gibbous
Apr 15
Full
Apr 22
Last Quarter
Apr 29
New
May 6
First Quarter

Hourly Weather History & Observations

Time (CDT) Temp. Windchill Dew Point Humidity Pressure Visibility Wind Dir Wind Speed Gust Speed Precip Events Conditions
12:15 AM 62.6 °F - 35.6 °F 37% 29.67 in 10.0 mi South 16.1 mph - N/A   Clear
12:35 AM 62.6 °F - 35.6 °F 37% 29.66 in 10.0 mi South 17.3 mph 26.5 mph N/A   Clear
12:55 AM 60.8 °F - 35.6 °F 39% 29.65 in 10.0 mi South 18.4 mph - N/A   Clear
1:15 AM 60.8 °F - 35.6 °F 39% 29.65 in 10.0 mi South 18.4 mph - N/A   Clear
1:35 AM 60.8 °F - 35.6 °F 39% 29.64 in 10.0 mi SSW 16.1 mph 27.6 mph N/A   Clear
1:55 AM 60.8 °F - 35.6 °F 39% 29.64 in 10.0 mi SSW 17.3 mph 25.3 mph N/A   Clear
2:15 AM 60.8 °F - 37.4 °F 42% 29.63 in 10.0 mi South 12.7 mph - N/A   Clear
2:35 AM 60.8 °F - 37.4 °F 42% 29.62 in 10.0 mi South 12.7 mph - N/A   Clear
2:55 AM 59.0 °F - 37.4 °F 45% 29.61 in 10.0 mi South 10.4 mph - N/A   Clear
3:15 AM 59.0 °F - 37.4 °F 45% 29.61 in 10.0 mi SSW 10.4 mph 18.4 mph N/A   Clear
3:35 AM 59.0 °F - 37.4 °F 45% 29.60 in 10.0 mi SSW 12.7 mph - N/A   Clear
3:55 AM 60.8 °F - 37.4 °F 42% 29.60 in 10.0 mi SSW 12.7 mph - N/A   Clear
4:15 AM 59.0 °F - 39.2 °F 48% 29.68 in 10.0 mi NW 18.4 mph 34.5 mph N/A   Clear
4:35 AM 59.0 °F - 39.2 °F 48% 29.69 in 10.0 mi NNW 12.7 mph 19.6 mph N/A   Clear
4:55 AM 55.4 °F - 37.4 °F 51% 29.68 in 10.0 mi NW 8.1 mph - N/A   Clear
5:15 AM 53.6 °F - 37.4 °F 54% 29.68 in 10.0 mi WNW 8.1 mph - N/A   Clear
5:35 AM 57.2 °F - 37.4 °F 48% 29.70 in 10.0 mi NNW 15.0 mph - N/A   Clear
5:55 AM 55.4 °F - 37.4 °F 51% 29.70 in 10.0 mi North 16.1 mph - N/A   Clear
6:15 AM 53.6 °F - 37.4 °F 54% 29.71 in 10.0 mi North 13.8 mph 23.0 mph N/A   Clear
6:35 AM 53.6 °F - 39.2 °F 58% 29.74 in 10.0 mi NNW 13.8 mph 20.7 mph N/A   Clear
6:55 AM 51.8 °F - 39.2 °F 62% 29.75 in 10.0 mi NNW 12.7 mph - N/A   Clear
7:15 AM 51.8 °F - 39.2 °F 62% 29.78 in 10.0 mi NNW 13.8 mph - N/A   Clear
7:35 AM 51.8 °F - 39.2 °F 62% 29.79 in 10.0 mi NNW 12.7 mph - N/A   Clear
7:55 AM 51.8 °F - 37.4 °F 58% 29.81 in 10.0 mi NNW 10.4 mph - N/A   Clear
8:15 AM 51.8 °F - 37.4 °F 58% 29.80 in 10.0 mi North 9.2 mph - N/A   Clear
8:35 AM 53.6 °F - 37.4 °F 54% 29.81 in 10.0 mi North 10.4 mph - N/A   Clear
8:55 AM 53.6 °F - 35.6 °F 51% 29.82 in 10.0 mi NNW 12.7 mph 19.6 mph N/A   Clear
9:15 AM 53.6 °F - 37.4 °F 54% 29.83 in 10.0 mi NNW 9.2 mph - N/A   Clear
9:35 AM 53.6 °F - 35.6 °F 51% 29.84 in 10.0 mi NNW 13.8 mph - N/A   Clear
9:55 AM 55.4 °F - 33.8 °F 44% 29.85 in 10.0 mi NNW 11.5 mph - N/A   Clear
10:15 AM 55.4 °F - 32.0 °F 41% 29.87 in 10.0 mi NNW 17.3 mph 23.0 mph N/A   Clear
10:35 AM 59.0 °F - 28.4 °F 31% 29.87 in 10.0 mi North 20.7 mph 27.6 mph N/A   Clear
10:55 AM 59.0 °F - 28.4 °F 31% 29.88 in 10.0 mi North 17.3 mph 26.5 mph N/A   Clear
11:15 AM 60.8 °F - 23.0 °F 23% 29.89 in 10.0 mi North 19.6 mph 26.5 mph N/A   Clear
11:35 AM 62.6 °F - 21.2 °F 20% 29.89 in 10.0 mi North 20.7 mph 32.2 mph N/A   Clear
11:55 AM 60.8 °F - 19.4 °F 20% 29.90 in 10.0 mi North 20.7 mph 28.8 mph N/A   Clear
12:15 PM 62.6 °F - 21.2 °F 20% 29.90 in 10.0 mi North 15.0 mph 24.2 mph N/A   Clear
12:35 PM 62.6 °F - 21.2 °F 20% 29.90 in 10.0 mi NNW 16.1 mph 23.0 mph N/A   Clear
12:55 PM 62.6 °F - 21.2 °F 20% 29.90 in 10.0 mi North 16.1 mph 23.0 mph N/A   Clear
1:35 PM 64.4 °F - 23.0 °F 21% 29.91 in 10.0 mi North 19.6 mph 27.6 mph N/A   Clear
1:55 PM 62.6 °F - 23.0 °F 22% 29.91 in 10.0 mi North 15.0 mph 23.0 mph N/A   Clear
2:15 PM 62.6 °F - 23.0 °F 22% 29.91 in 10.0 mi North 15.0 mph 21.9 mph N/A   Clear
2:55 PM 62.6 °F - 21.2 °F 20% 29.92 in 10.0 mi North 10.4 mph 19.6 mph N/A   Clear
3:15 PM 62.6 °F - 23.0 °F 22% 29.92 in 10.0 mi North 10.4 mph 18.4 mph N/A   Clear
3:35 PM 64.4 °F - 21.2 °F 19% 29.92 in 10.0 mi NW 15.0 mph 20.7 mph N/A   Clear
3:55 PM 64.4 °F - 21.2 °F 19% 29.91 in 10.0 mi NW 11.5 mph 18.4 mph N/A   Clear
4:15 PM 64.4 °F - 19.4 °F 18% 29.91 in 10.0 mi West 8.1 mph 18.4 mph N/A   Clear
4:35 PM 64.4 °F - 19.4 °F 18% 29.91 in 9.0 mi NW 12.7 mph 18.4 mph N/A   Clear
4:55 PM 66.2 °F - 19.4 °F 17% 29.91 in 10.0 mi NW 11.5 mph 17.3 mph N/A   Clear
5:15 PM 66.2 °F - 19.4 °F 17% 29.91 in 10.0 mi North 5.8 mph 13.8 mph N/A   Clear
5:35 PM 66.2 °F - 21.2 °F 18% 29.91 in 10.0 mi Variable 4.6 mph - N/A   Clear
5:55 PM 66.2 °F - 19.4 °F 17% 29.92 in 10.0 mi North 12.7 mph - N/A   Clear
6:15 PM 66.2 °F - 19.4 °F 17% 29.91 in 10.0 mi WNW 8.1 mph 13.8 mph N/A   Clear
6:35 PM 64.4 °F - 21.2 °F 19% 29.92 in 10.0 mi NW 8.1 mph - N/A   Clear
6:55 PM 64.4 °F - 21.2 °F 19% 29.92 in 10.0 mi NNW 6.9 mph - N/A   Clear
7:15 PM 62.6 °F - 21.2 °F 20% 29.92 in 10.0 mi NNW 8.1 mph - N/A   Clear
7:35 PM 62.6 °F - 21.2 °F 20% 29.93 in 10.0 mi NW 9.2 mph - N/A   Clear
7:55 PM 60.8 °F - 21.2 °F 22% 29.93 in 10.0 mi NNW 6.9 mph - N/A   Clear
8:15 PM 60.8 °F - 21.2 °F 22% 29.94 in 10.0 mi NNW 3.5 mph - N/A   Clear
8:35 PM 53.6 °F - 23.0 °F 30% 29.95 in 10.0 mi Calm Calm - N/A   Clear
8:55 PM 50.0 °F - 23.0 °F 35% 29.96 in 10.0 mi Calm Calm - N/A   Clear
9:15 PM 50.0 °F - 24.8 °F 37% 29.97 in 10.0 mi Calm Calm - N/A   Clear
9:35 PM 51.8 °F - 23.0 °F 33% 29.98 in 10.0 mi Calm Calm - N/A   Clear
9:55 PM 46.4 °F - 28.4 °F 50% 29.99 in 10.0 mi Calm Calm - N/A   Clear
10:15 PM 48.2 °F - 26.6 °F 43% 29.99 in 10.0 mi Calm Calm - N/A   Clear
10:35 PM 46.4 °F 45.2 °F 28.4 °F 50% 29.99 in 10.0 mi NNE 3.5 mph - N/A   Partly Cloudy
10:55 PM 44.6 °F - 30.2 °F 57% 30.00 in 10.0 mi Calm Calm - N/A   Clear
11:15 PM 42.8 °F - 30.2 °F 61% 30.01 in 10.0 mi Calm Calm - N/A   Clear
11:35 PM 44.6 °F 41.4 °F 30.2 °F 57% 30.01 in 10.0 mi North 5.8 mph - N/A   Clear
11:55 PM 42.8 °F 40.1 °F 30.2 °F 61% 30.01 in 10.0 mi NNE 4.6 mph - N/A   Clear